Regional Weather Roundup
Issued by NWS

Home | Current Version | Previous Version | Graphics & Text | Print | Product List | Glossary On
Versions: 1 2 3 4 5 6 7 8 9 10 11 12 13 14 15 16 17 18 19 20 21 22 23 24 25 26 27 28 29 30 31 32 33 34 35 36 37 38 39 40 41 42 43 44 45 46 47 48 49 50
215
ASUS44 KLIX 281710
RWRLA
LOUISIANA WEATHER ROUNDUP
NATIONAL WEATHER SERVICE NEW ORLEANS LA
1200 PM CDT MON JUL 28 2014

NOTE: "FAIR" INDICATES FEW OR NO CLOUDS BELOW 12,000 FEET WITH NO
      SIGNIFICANT WEATHER AND/OR OBSTRUCTIONS TO VISIBILITY.
      SKY/WX - SKY CONDITION AND SIGNIFICANT WEATHER.
      TMP - AIR TEMPERATURE.    DP   - DEWPOINT TEMPERATURE.
      RH  - RELATIVE HUMIDITY.  PRES - PRESSURE.
      HX  - HEAT INDEX.         WCI  - WIND CHILL INDEX.

*  THESE STATIONS ARE NOT NWS OR FAA STATIONS AND ARE NOT UNDER
   NWS QUALITY CONTROL.

LAZ040-048-061>063-065-066-069-281800-
SOUTHEAST LOUISIANA

CITY           SKY/WX    TMP DP  RH WIND       PRES   REMARKS
N.O. AUDUBON     N/A     94  76  56 MISG        N/A  HX 106
N.O. INTL ARPT PTSUNNY   91  74  57 W12       30.07F HX 100
N.O. LAKEFRONT SUNNY     89  77  67 W14       30.08F HX 101
N.O. DOWNTOWN* FAIR      91  72  52 W7        30.08F HX  98
SLIDELL        MOSUNNY   90  77  65 SW7       30.05F HX 103
BATON ROUGE    PTSUNNY   91  77  63 W12       30.09S HX 104
BOOTHVILLE     SUNNY     88  76  67 W12       30.09F HX  99
BELLE CHASSE   PTSUNNY   90  73  57 SW8       30.07F HX  98
BOGALUSA*      FAIR      92  75  59 W9        30.07F HX 103
GALLIANO*      NOT AVBL
NEW ROADS*     PTSUNNY   85  77  75 W6        30.10S HX  96
GONZALES*      FAIR      88  77  70 W6        30.08F HX 100
HAMMOND*       MOSUNNY   91  75  59 NW7       30.09S HX 102
HOUMA*         PTSUNNY   91  72  52 W10       30.10S HX  98
PORT FOURCHON* MOSUNNY   88  75  66 W12       30.11F HX  97

$$

LAZ041-044-053-054-281800-
SOUTHWEST LOUISIANA

CITY           SKY/WX    TMP DP  RH WIND       PRES   REMARKS
LAKE CHARLES   SUNNY     91  73  55 VRB7      30.11F HX  99
LAFAYETTE      NOT AVBL
PATTERSON      MOSUNNY   91  75  59 NW9       30.14S HX 102
SALT POINT       N/A     89  79  72 VRB7      30.10S HX 104
NEW IBERIA     MOSUNNY   90  76  63 W10       30.11F HX 101
CHENAULT AIRPK MOSUNNY   91  72  52 W10       30.11F HX  98

$$

LAZ027-028-281800-
CENTRAL LOUISIANA

CITY           SKY/WX    TMP DP  RH WIND       PRES   REMARKS
FORT POLK      SUNNY     88  71  57 NW9       30.11F
ALEXANDRIA INT PTSUNNY   90  72  55 W6        30.07F HX  97
ALEXANDRIA     PTSUNNY   92  75  57 NW9       30.08F HX 103

$$

LAZ001-002-281800-
NORTHWEST LOUISIANA

CITY           SKY/WX    TMP DP  RH WIND       PRES   REMARKS
SHREVEPORT     PTSUNNY   88  74  63 N5        30.09F HX  96
BARKSDALE AFB  MOSUNNY   88  73  60 N6        30.10S HX  96
DTN SHREVEPORT MOSUNNY   88  72  58 CALM      30.10S

$$

LAZ014-016-281800-
NORTHEAST LOUISIANA

CITY           SKY/WX    TMP DP  RH WIND       PRES   REMARKS
MONROE         MOSUNNY   86  73  65 N9        30.09S
TALLULAH       MOSUNNY   86  73  65 NW7       30.07S

$$




USA.gov is the U.S. government's official web portal to all federal, state and local government web resources and services.